Regional Weather Roundup
Issued by NWS

Home | Current Version | Previous Version | Text Only | Print | Product List | Glossary Off
Versions: 1 2 3 4 5 6 7 8 9 10 11 12 13 14 15 16 17 18 19 20 21 22 23 24 25 26 27 28 29 30 31 32 33 34 35 36 37 38 39 40 41 42 43 44 45 46 47 48 49 50

000
ASUS45 KSLC 260110
RWRUT

UTAH REGIONAL WEATHER ROUNDUP
NATIONAL WEATHER SERVICE SALT LAKE CITY UT
700 PM MDT WED MAR 25 2015

UTZ001>011-023>025-260200-

NORTHERN UTAH

CITY           SKY/WX    TMP DP  RH WIND       PRES   REMARKS
BRIGHAM CITY   PTCLDY    49  22  34 S6        30.35R
HILL AFB       PTCLDY    46  18  32 W6        30.34S
LOGAN          CLEAR     49  22  34 CALM      30.33S
OGDEN          PTCLDY    48  18  30 W3        30.34S
PROVO AIRPORT  PTCLDY    66  21  18 NW12      30.34R
SALT LAKE CITY PTCLDY    50  20  30 NW7       30.35R
VERNAL         PTCLDY    50  13  22 S3        30.24R
WENDOVER       CLEAR     52  18  25 S3        30.34R
HEBER CITY     CLEAR     46  19  34 W7        30.30R
WEST JORDAN    CLEAR     46  18  31 N10       30.36R

$$

UTZ012>022-026-027-260200-

SOUTHERN/CENTRAL UTAH

CITY           SKY/WX    TMP DP  RH WIND       PRES   REMARKS
BLANDING       PTCLDY    49   9  20 NW14G22   30.28R
BRYCE CANYON   CLEAR     44  10  25 NW16      30.28S
CEDAR CITY     CLEAR     50   8  18 N16G22    30.29R
DELTA          CLEAR     52   9  17 NW10      30.32R
HANKSVILLE     CLEAR     59   5  11 CALM      30.23R
MILFORD        CLEAR     53   7  15 N14       30.31R
MOAB/CYNLANDS  CLEAR     57   2  11 CALM      30.20R
PRICE          CLEAR     50   8  18 NW20G25   30.23R
ST GEORGE      CLEAR     68  14  12 NE18      30.21R

$$

REGIONAL REPORTS     COLORADO/ARIZONA

CITY           SKY/WX    TMP DP  RH WIND       PRES   REMARKS
CRAIG, CO      MOCLDY    43  16  33 NW6       30.26R
GRAND JUNCTION CLEAR     51  13  21 NE9       30.23R
RIFLE          PTCLDY    47  17  30 NW7       30.26R
MONTROSE       CLEAR     50  11  20 NW10      30.24R
CORTEZ         CLEAR     51   4  14 N17G26    30.18R
PAGE, AZ       CLEAR     66  17  15 NE8       30.15R
GRAND CANYON   PTCLDY    56  17  21 NW5       30.25R
KINGMAN        CLEAR     68  25  19 N24G31    30.13R
FLAGSTAFF      MOCLDY    56  20  24 E8        30.22R

$$

REGIONAL REPORTS    NEVADA/IDAHO/WYOMING

CITY           SKY/WX    TMP DP  RH WIND       PRES   REMARKS
LAS VEGAS, NV  MOSUNNY   76  25  15 E8        30.09F
ELY            SUNNY     54  19  25 N9        30.31R
ELKO           CLOUDY    56  27  32 W12       30.32R
POCATELLO, ID  PTCLDY    48  18  30 SW15      30.33S
BURLEY         CLOUDY    50  24  36 W12G20    30.32S
EVANSTON, WY   PTCLDY    40  17  39 W13       30.31R WCI  32
ROCK SPRINGS   PTCLDY    42  11  28 W24G33    30.24R
KEMMERER       PTCLDY    34  21  60 NW13G20   30.31R WCI  25

$$



USA.gov is the U.S. government's official web portal to all federal, state and local government web resources and services.